STARLINK-36329, 67739

Orbit data source: Space-Track

STARLINK-36329, 67739 is a payload satellite owned by SpaceX/Seattle (US) in SSO that was launched on Wed, 11 Feb 2026 UTC via an FALCON 9 launch vehicle from the Air Force Western Test Range (AFWTR). Payload-class satellites include a variety of spacecraft equipped with specific instruments for various scientific and technological missions. These include communications satellites like Starlink; space stations such as the ISS; scientific satellites like the Hubble; Earth observation satellites from companies like Planet Labs, Umbra, and HawkEye 360; GPS; miniature CubeSats for education and research; and military/defense satellites.

Loading next visibility...
Identifier
67739, 2026-026U
Orbit
SSO
Country
Flag of USUS
Related business
Manufacturer
SpaceX/Seattle
Mission
Operational Commercial Communications
Bus & Motor
STARLINK V2MO, Unknown motor
Mass
575 kg wet, ~530 kg dry
Launch date (UTC)
2026-02-11 (3 months ago)
Launch vehicle
FALCON 9
Launch site
Air Force Western Test Range (AFWTR)
Object type
Payload
Rocket body
Debris
Shape & HBR
Box + 2 Pan, 17.7 m
Radar Cross Section
36.964 m²

Expand to show TLE details & history
Last TLE update: 11 hours ago

TLE from 11 hours ago
0 STARLINK-36329
1 67739U 26026U   26130.10704051  .00010966  00000-0  34152-3 0  9998
2 67739  97.2850 183.9256 0000763  96.0678 264.0651 15.33443213 13547
Epoch: 2026-05-10T02:34Z
TLE epoch observation values (Epoch: 2026-05-10T02:34:08.300Z)
Latitude
-0.00007°
Longitude
-82.52385°
Altitude
468.715 km
Speed
7.632 km/s
True Right ascension
12h 15m 42s
True Declination
0° 00' 00"
Sunlit
Object was in full shadow at epoch
Visualization orbit readout
Latitude
Unknown
Longitude
Unknown
Altitude
Unknown
Speed
Unknown
Apparent Right ascension
Unknown
Apparent Declination
Unknown
Sunlit
N/A
Visualization observer readout
Local Sidereal Time
21:22:15
Azimuth
Unknown
Elevation
Unknown
Doppler factor
Unknown
Orbital elements
Apogee altitude
463.013 km
Perigee altitude
461.969 km
Semi-major axis
6,840.628 km
Eccentricity
0.00008
Inclination
97.285°
RAAN
183.9256°
Arg. of periapsis
96.0678°
True anomaly
264.0564°
Mean anomaly
264.0651°
Eccentric anomaly
264.06075°
Mean motion
3.83618 °/min
Orbital period
93.84 mins
BSTAR
0.00034152
Loading maneuver chart data...
Computing Atmospheric mass density...
Loading historical data...
Loading historical data...
Loading historical data...
Loading historical data...
Loading historical data...
Loading historical data...
Loading historical data...

Documentation

Showing up to 5 results
|